GW3787 Weather Reports


Display with metric or nautical units.
time (UTC)temp
F
wind
direction
speed
MPH
gust
MPH
rain 1hr
in
rain 24hr
in
rain mn
in
humidity
%
barometer
mb
20260507234529 69 35 7.0 17.0 0.00 0.01 0.00 26 1005.8
20260507233030 69 20 5.0 15.0 0.00 0.01 0.00 27 1005.7
20260507231526 68 5 3.0 15.0 0.00 0.01 0.00 29 1005.7
20260507230032 67 27 6.0 13.0 0.00 0.01 0.00 28 1005.7
20260507224524 68 315 5.0 11.0 0.00 0.01 0.00 29 1005.8
20260507223023 67 37 8.0 14.0 0.00 0.01 0.00 29 1005.9
20260507221522 68 297 7.0 16.0 0.00 0.01 0.00 30 1005.9
20260507220021 68 355 1.0 12.0 0.00 0.01 0.00 31 1006.0
20260507214521 68 353 4.0 12.0 0.00 0.01 0.00 31 1006.1
20260507213018 68 351 4.0 17.0 0.00 0.01 0.00 30 1006.4
20260507211531 67 360 4.0 20.0 0.00 0.01 0.00 32 1006.5
20260507210016 68 354 4.0 17.0 0.00 0.01 0.00 31 1006.5
20260507204518 69 323 4.0 14.0 0.00 0.01 0.00 30 1006.6
20260507203016 66 298 0.0 12.0 0.00 0.01 0.00 37 1006.7
20260507201513 66 355 2.0 16.0 0.00 0.01 0.00 32 1006.8
20260507200012 67 322 4.0 14.0 0.00 0.01 0.00 32 1006.7
20260507194511 66 323 2.0 13.0 0.00 0.01 0.00 33 1006.7
20260507193011 65 323 4.0 20.0 0.00 0.01 0.00 32 1006.6
20260507191510 66 347 3.0 19.0 0.00 0.01 0.00 35 1006.6
20260507190010 68 347 4.0 15.0 0.00 0.01 0.00 31 1006.6
20260507184507 67 15 7.0 15.0 0.00 0.01 0.00 31 1006.6
20260507183006 67 14 2.0 10.0 0.00 0.01 0.00 34 1006.7
20260507181503 67 315 5.0 12.0 0.00 0.01 0.00 35 1006.9
20260507180103 66 351 2.0 13.0 0.00 0.01 0.00 37 1006.9
20260507174608 65 341 6.0 15.0 0.00 0.01 0.00 39 1007.2
20260507173053 65 27 4.0 12.0 0.00 0.01 0.00 37 1007.4
20260507171603 64 19 5.0 15.0 0.00 0.01 0.00 38 1007.7
20260507170047 64 347 6.0 15.0 0.00 0.01 0.00 40 1007.8
20260507164548 64 10 5.0 13.0 0.00 0.01 0.00 42 1007.8
20260507163047 63 326 1.0 11.0 0.00 0.01 0.00 44 1007.8
20260507161541 63 328 3.0 14.0 0.00 0.01 0.00 44 1007.9
20260507160043 62 28 8.0 20.0 0.00 0.01 0.00 43 1007.9
20260507154529 62 360 2.0 14.0 0.00 0.01 0.00 46 1008.1
20260507153022 61 325 3.0 11.0 0.00 0.01 0.00 47 1008.0
20260507151517 59 314 3.0 10.0 0.00 0.01 0.00 50 1008.0
20260507150017 58 321 2.0 8.0 0.00 0.01 0.00 53 1008.0
20260507144521 57 316 3.0 8.0 0.00 0.01 0.00 54 1008.0
20260507143013 57 313 2.0 11.0 0.00 0.01 0.00 62 1008.0
20260507141514 53 301 5.0 8.0 0.00 0.01 0.00 67 1008.0
20260507140006 51 309 3.0 6.0 0.00 0.01 0.00 71 1008.2
20260507134503 52 352 1.0 11.0 0.00 0.01 0.00 63 1008.6
20260507133113 54 334 0.0 6.0 0.00 0.01 0.00 53 1008.4
20260507131556 53 332 4.0 6.0 0.00 0.01 0.00 55 1008.2
20260507130104 51 332 0.0 3.0 0.00 0.01 0.00 61 1008.0
20260507124602 49 332 2.0 3.0 0.00 0.01 0.00 63 1007.9
20260507123042 47 332 0.0 3.0 0.00 0.01 0.00 67 1007.9
20260507121540 45 332 0.0 3.0 0.00 0.01 0.00 70 1007.8
20260507120040 45 332 0.0 1.0 0.00 0.01 0.00 67 1007.8
20260507114551 47 332 0.0 1.0 0.00 0.01 0.00 67 1007.7
20260507113037 47 332 0.0 3.0 0.00 0.01 0.00 67 1007.6
20260507111532 46 332 0.0 1.0 0.00 0.01 0.00 69 1007.6
20260507110039 45 332 0.0 4.0 0.00 0.01 0.00 69 1007.8
20260507104531 44 332 0.0 1.0 0.00 0.01 0.00 70 1007.6
20260507103030 43 332 0.0 3.0 0.00 0.01 0.00 70 1007.5
20260507101530 42 332 0.0 3.0 0.00 0.01 0.00 70 1007.5
20260507100029 42 332 0.0 0.0 0.00 0.01 0.00 69 1007.5
20260507094527 43 332 0.0 2.0 0.00 0.01 0.00 66 1007.5
20260507093035 42 332 0.0 0.0 0.00 0.01 0.00 68 1007.7
20260507091537 41 332 0.0 2.0 0.00 0.01 0.00 68 1007.4
20260507090025 41 332 0.0 4.0 0.00 0.01 0.00 66 1007.6
20260507084526 41 338 3.0 5.0 0.00 0.01 0.00 67 1007.2
20260507083024 42 338 1.0 3.0 0.00 0.01 0.00 66 1007.5
20260507081523 44 338 0.0 0.0 0.00 0.01 0.00 67 1007.6
20260507080023 42 338 0.0 0.0 0.00 0.01 0.00 74 1007.7
20260507074521 42 338 0.0 0.0 0.00 0.01 0.00 74 1007.7
20260507073020 42 338 0.0 0.0 0.00 0.01 0.00 72 1007.7
20260507071520 42 338 0.0 3.0 0.00 0.01 0.00 70 1007.5
20260507070019 43 306 0.0 8.0 0.00 0.01 0.00 68 1007.5
20260507064516 42 318 3.0 5.0 0.00 0.01 0.00 66 1007.0
20260507063026 42 324 0.0 4.0 0.01 0.01 0.00 68 1007.2
20260507061512 42 355 2.0 5.0 0.01 0.01 0.00 66 1007.4
20260507060010 46 356 0.0 5.0 0.01 0.01 0.01 59 1007.6
20260507054507 48 43 0.0 5.0 0.01 0.01 0.01 54 1007.8
20260507053007 51 35 0.0 4.0 0.00 0.00 0.00 45 1008.0
20260507051508 52 66 0.0 10.0 0.00 0.00 0.00 36 1008.1
20260507050006 53 76 6.0 11.0 0.00 0.00 0.00 34 1007.2
20260507044505 54 59 0.0 4.0 0.00 0.00 0.00 37 1006.9
20260507043004 54 59 0.0 3.0 0.00 0.00 0.00 37 1007.3
20260507041525 55 59 0.0 0.0 0.00 0.00 0.00 34 1007.2
20260507040026 56 59 0.0 0.0 0.00 0.00 0.00 33 1006.9
20260507034532 56 59 0.0 5.0 0.00 0.00 0.00 34 1007.0
20260507033024 55 59 4.0 7.0 0.00 0.00 0.00 34 1007.0
20260507031523 54 59 1.0 3.0 0.00 0.00 0.00 35 1006.6
20260507030023 59 59 0.0 0.0 0.00 0.00 0.00 31 1006.5
20260507024526 60 59 0.0 4.0 0.00 0.00 0.00 31 1006.5
20260507023025 62 58 3.0 6.0 0.00 0.00 0.00 29 1006.2
20260507021521 63 54 3.0 6.0 0.00 0.00 0.00 28 1006.2
20260507020029 64 34 0.0 0.0 0.00 0.00 0.00 26 1006.4
20260507014518 66 34 0.0 5.0 0.00 0.00 0.00 25 1006.6
20260507013033 67 34 3.0 8.0 0.00 0.00 0.00 23 1006.8
20260507011516 68 24 1.0 8.0 0.00 0.00 0.00 23 1006.8
20260507010015 69 5 3.0 8.0 0.00 0.00 0.00 22 1006.9
20260507004513 70 29 1.0 10.0 0.00 0.00 0.00 22 1007.1
20260507003011 69 29 6.0 13.0 0.00 0.00 0.00 21 1007.3
20260507001509 70 322 5.0 15.0 0.00 0.00 0.00 21 1007.5
20260507000008 69 289 10.0 18.0 0.00 0.00 0.00 22 1007.5